Flag for Germany

Past Weather in Springe, Lower Saxony, Germany — Yesterday and Last 2 Weeks

Now
72 °F

Broken clouds.


Feels Like: 77 °F
Forecast: 77 / 67 °F
Wind: 7 mph from Southeast

Location: Wunstorf Airport
Current Time: Aug 13, 2020 at 8:26:58 am
Latest Report: Aug 13, 2020 at 7:20 am
Visibility: N/A
Pressure29.92 "Hg
Humidity: 50%
Dew Point: 52 °F
Location of SpringeLocation

Past Weather in Springe — Graph

°F

Springe Temperature Yesterday

Maximum temperature yesterday: 91 °F (at 2:20 pm)
Minimum temperature yesterday: 68 °F (at 5:20 am)
Average temperature yesterday: 81 °F

High & Low Weather Summary for the Past Weeks

 TemperatureHumidityPressure
High97 °F (Aug 8, 3:20 pm)100% (Aug 2, 7:20 am)30.18 "Hg (Aug 2, 7:20 am)
Low50 °F (Jul 30, 5:20 am)22% (Aug 6, 3:20 pm)29.86 "Hg (Aug 3, 4:20 pm)
Average73 °F56%30.03 "Hg
* Reported Jul 29 6:20 am — Aug 13 6:20 am, Springe. Weather by CustomWeather, © 2020

Note: Actual official high and low records may vary slightly from our data, if they occured in-between our weather recording intervals... More about our weather records

Springe Weather History for the Previous 24 Hours

Scroll right to see more
 ConditionsComfort  
Time TempWeatherWind HumidityBarometerVisibility
6:20 am
Thu, Aug 13
72 °FBroken clouds.6 mph47%29.92 "HgN/A
5:20 am73 °FPassing clouds.8 mph41%29.92 "HgN/A
4:20 am73 °FPassing clouds.9 mph41%29.92 "HgN/A
3:20 am75 °FPassing clouds.9 mph39%29.92 "HgN/A
2:20 am75 °FPassing clouds.7 mph41%29.95 "HgN/A
1:20 am77 °FPartly cloudy.6 mph44%29.98 "HgN/A
12:20 am79 °FPassing clouds.8 mph39%29.98 "HgN/A
11:20 pm
Wed, Aug 12
81 °FPassing clouds.6 mph37%29.98 "HgN/A
10:20 pm82 °FPartly cloudy.6 mph37%29.95 "HgN/A
9:20 pm84 °FPassing clouds.8 mph33%29.95 "HgN/A
8:20 pm86 °FScattered clouds.9 mph33%29.95 "HgN/A
7:20 pm90 °FPassing clouds.8 mph29%29.95 "HgN/A
6:20 pm90 °FPassing clouds.10 mph31%29.95 "HgN/A
5:20 pm91 °FPassing clouds.13 mph30%29.95 "HgN/A
4:20 pm91 °FPassing clouds.12 mph30%29.98 "HgN/A
3:20 pm91 °FScattered clouds.14 mph30%29.98 "HgN/A
2:20 pm91 °FPassing clouds.15 mph30%30.01 "HgN/A
1:20 pm90 °FPassing clouds.17 mph29%30.01 "HgN/A
12:20 pm88 °FPassing clouds.17 mph33%30.04 "HgN/A
11:20 am86 °FScattered clouds.15 mph40%30.04 "HgN/A
10:20 am81 °FScattered clouds.13 mph48%30.04 "HgN/A
9:20 am75 °FScattered clouds.10 mph57%30.04 "HgN/A
8:20 am72 °FScattered clouds.8 mph65%30.04 "HgN/A
Weather by CustomWeather, © 2020

See weather overview